User: anonymous   Login
Location: Unspecified
(0.0000°N, 0.0000°E)
Time: 19:06:17
(UTC+00:00)
Language:

STARLINK-34656 - Orbit

View from above orbital plane
View from above orbital plane
View from above satellite
View from above satellite

Ground track
Ground track

The orbit is defined by the following mean orbital elements,

1 65032U          26145.41570770 +.00000000 +00000-0 +51610-3 0 00004
2 65032  53.1589 298.0528 0001089  86.9397 273.1729 15.30212597    09
Epoch (UTC): 25 May 2026 09:58:37
Eccentricity: 0.0001089
inclination: 53.1589°
perigee height: 474 km
apogee height: 476 km
right ascension of ascending node: 298.0528°
argument of perigee: 86.9397°
revolutions per day: 15.30212597
mean anomaly at epoch: 273.1729°

The dashed part of the orbit path shows where the satellite is in the earth's shadow,  

DLR